SCP
0 0 0 0 0 0 0 0 0 0 0 0 0 0 0 0 0 0 0 0 0 0 0 0 0 0 0 0 0 0 0 0 0 0 0 0 0 0 0 0 0 0 0
0 0 0 0 0 0 0 0 0 0 0 0 0 0 0 0 0 0 0 0 0 0 0 0 0 0 0 0 0 0 0 0 0 0 0 0 0 0 0 0 0 0 0
0 0 0 0 0 0 0 0 0 0 0 0 0 0 0 0 0 0 0 0 0 0 0 0 0 0 0 0 0 0 0 0 0 0 0 0 0 0 0 0 0 0 0
0 0 0 0 0 0 0 0 0 0 0 0 0 0 0 0 0 0 0 0 0 0 0 0 0 0 0 0 0 0 0 0 0 0 0 0 0 0 0 0 0 0 0
0 0 0 0 0 0 0 0 0 0 0 0 0 0 0 0 0 0 0 0 0 0 0 0 0 0 0 0 0 0 0 0 0 0 0 0 0 0 0 0 0 0 0
0 0 0 0 0 0 0 0 0 0 0 0 0 0 0 0 0 0 0 0 0 0 0 0 0 0 0 0 0 0 0 0 0 0 0 0 0 0 0 0 0 0 0
0 0 0 0 0 0 0 0 0 0 0 0 0 0 0 0 0 0 0 0 0 0 0 0 0 0 0 0 0 0 0 0 0 0 0 0 0 0 0 0 0 0 0
0 0 0 0 0 0 0 0 0 0 0 0 0 0 0 0 0 0 0 0 0 0 0 0 0 0 0 0 0 0 0 0 0 0 0 0 0 0 0 0 0 0 0
0 0 0 0 0 0 0 0 0 0 0 0 0 0 0 0 0 0 0 0 0 0 0 0 0 0 0 0 0 0 0 0 0 0 0 0 0 0 0 0 0 0 0
0 0 0 0 0 0 0 0 0 0 0 0 0 0 0 0 0 0 0 0 0 0 0 0 0 0 0 0 0 0 0 0 0 0 0 0 0 0 0 0 0 0 0
0 0 0 0 0 0 0 0 0 0 0 0 0 0 0 0 0 0 0 0 0 0 0 0 0 0 0 0 0 0 0 0 0 0 0 0 0 0 0 0 0 0 0
0 0 0 0 0 0 0 0 0 0 0 0 0 0 0 0 0 0 0 0 0 0 0 0 0 0 0 0 0 0 0 0 0 0 0 0 0 0 0 0 0 0 0
0 0 0 0 0 0 0 0 0 0 0 0 0 0 0 0 0 0 0 0 0 0 0 0 0 0 0 0 0 0 0 0 0 0 0 0 0 0 0 0 0 0 0
0 0 0 0 0 0 0 0 0 0 0 0 0 0 0 0 0 0 0 0 0 0 0 0 0 0 0 0 0 0 0 0 0 0 0 0 0 0 0 0 0 0 0
0 0 0 0 0 0 0 0 0 0 0 0 0 0 0 0 0 0 0 0 0 0 0 0 0 0 0 0 0 0 0 0 0 0 0 0 0 0 0 0 0 0 0
0 0 0 0 0 0 0 0 0 0 0 0 0 0 0 0 0 0 0 0 0 0 0 0 0 0 0 0 0 0 0 0 0 0 0 0 0 0 0 0 0 0 0
0 0 0 0 0 0 0 0 0 0 0 0 0 0 0 0 0 0 0 0 0 0 0 0 0 0 0 0 0 0 0 0 0 0 0 0 0 0 0 0 0 0 0
0 0 0 0 0 0 0 0 0 0 0 0 0 0 0 0 0 0 0 0 0 0 0 0 0 0 0 0 0 0 0 0 0 0 0 0 0 0 0 0 0 0 0
0 0 0 0 0 0 0 0 0 0 0 0 0 0 0 0 0 0 0 0 0 0 0 0 0 0 0 0 0 0 0 0 0 0 0 0 0 0 0 0 0 0 0
0 0 0 0 0 0 0 0 0 0 0 0 0 0 0 0 0 0 0 0 0 0 0 0 0 0 0 0 0 0 0 0 0 0 0 0 0 0 0 0 0 0 0
0 0 0 0 0 0 0 0 0 0 0 0 0 0 0 0 0 0 0 0 0 0 0 0 0 0 0 0 0 0 0 0 0 0 0 0 0 0 0 0 0 0 0
0 0 0 0 0 0 0 0 0 0 0 0 0 0 0 0 0 0 0 0 0 0 0 0 0 0 0 0 0 0 0 0 0 0 0 0 0 0 0 0 0 0 0
0 0 0 0 0 0 0 0 0 0 0 0 0 0 0 0 0 0 0 0 0 0 0 0 0 0 0 0 0 0 0 0 0 0 0 0 0 0 0 0 0 0 0
0 0 0 0 0 0 0 0 0 0 0 0 0 0 0 0 0 0 0 0 0 0 0 0 0 0 0 0 0 0 0 0 0 0 0 0 0 0 0 0 0 0 0
0 0 0 0 0 0 0 0 0 0 0 0 0 0 0 0 0 0 0 0 0 0 0 0 0 0 0 0 0 0 0 0 0 0 0 0 0 0 0 0 0 0 0
0 0 0 0 0 0 0 0 0 0 0 0 0 0 0 0 0 0 0 0 0 0 0 0 0 0 0 0 0 0 0 0 0 0 0 0 0 0 0 0 0 0 0
Wind_Speed
8 8 8 8 8 8 7 8 8 8 8 8 8 7 7 7 7 7 6 7 7 5 4 5 4 4 3 2 2 2 1 1 2 1 0 1 2 3 3 4 5 6 5
6 6 6 6 6 7 7 6 6 7 7 7 7 7 7 6 6 7 7 7 7 6 6 6 5 4 4 3 2 2 2 1 1 1 1 1 2 4 5 6 5 5 6
5 6 6 6 6 6 6 5 6 6 6 6 7 7 7 6 6 6 7 7 6 6 7 7 6 6 5 3 3 3 2 1 1 0 1 1 2 3 5 5 6 5 6
5 5 5 5 5 5 5 5 5 6 7 6 6 6 6 6 7 7 7 8 7 7 6 6 6 6 6 5 4 3 2 2 1 0 1 2 2 3 4 5 6 6 7
6 5 5 5 5 5 5 5 5 5 6 6 7 7 7 6 6 8 8 8 8 8 7 6 5 5 5 4 3 3 3 2 1 1 1 2 2 3 4 5 7 8 8
6 6 6 6 6 6 6 6 6 6 6 6 6 7 7 5 9 11 10 8 8 8 8 7 6 6 6 6 6 4 2 2 1 1 2 3 4 4 5 5 7 7 6
7 6 6 6 6 6 6 6 6 6 6 6 6 7 7 8 12 12 11 8 8 7 7 7 5 4 4 4 5 4 2 1 1 2 3 3 4 4 6 7 6 7 8
7 7 6 7 6 6 7 6 6 6 6 6 6 7 7 8 12 13 12 8 7 7 6 6 6 5 4 4 3 2 2 1 0 1 2 3 4 4 5 6 7 9 9
8 8 7 7 7 7 7 7 6 6 6 5 5 6 7 8 12 14 12 7 6 6 5 5 5 5 5 5 3 3 2 1 1 2 3 4 5 6 5 4 5 6 7
8 7 7 7 7 8 7 6 5 5 6 6 6 5 6 6 11 13 11 6 6 5 4 4 4 4 5 4 3 3 2 1 0 1 2 3 3 3 4 3 4 5 5
6 6 7 6 6 7 6 5 6 6 7 6 6 5 4 5 9 11 10 5 6 6 4 4 3 5 5 4 2 1 1 0 0 1 1 2 2 2 2 3 4 4 5
7 7 7 6 6 6 7 7 6 7 7 7 6 6 4 3 5 8 8 6 6 5 4 3 4 6 4 4 2 2 2 2 0 1 1 2 2 3 3 5 5 5 6
7 6 6 6 5 6 7 8 7 6 6 6 6 6 5 4 4 7 7 7 7 4 3 5 6 6 5 3 4 3 2 1 1 1 2 2 2 3 4 4 5 5 7
7 6 6 6 6 5 5 5 6 6 6 6 6 6 5 5 5 4 4 5 5 5 4 5 6 6 4 4 3 2 1 0 1 1 2 2 2 3 3 4 4 5 5
6 6 5 5 6 5 4 3 4 3 4 6 5 6 7 6 7 8 6 5 4 5 5 3 3 3 3 2 2 1 1 1 1 1 1 2 2 3 3 3 4 4 4
6 5 4 4 4 4 4 3 3 3 4 4 5 5 3 4 8 10 9 8 8 9 5 4 4 4 4 3 3 3 2 2 1 1 2 2 2 3 3 3 4 4 5
5 5 4 4 4 4 4 5 4 3 4 4 5 5 5 7 8 9 9 9 9 9 4 4 4 4 4 4 3 3 3 2 2 2 2 2 2 3 3 4 4 4 5
4 4 4 4 4 4 4 4 4 5 4 3 3 4 5 6 7 8 8 7 6 6 4 4 4 4 4 4 4 3 3 3 3 3 3 3 3 3 4 4 4 5 6
3 3 3 3 3 3 3 3 3 4 3 3 3 4 4 5 6 7 7 5 5 5 5 4 4 4 4 4 3 3 3 3 3 3 3 3 3 3 4 4 5 6 6
2 3 2 3 3 3 3 3 3 3 4 4 4 4 3 4 4 5 5 4 4 5 4 4 4 4 4 4 4 4 4 4 4 4 4 3 3 4 4 5 5 5 5
2 2 2 2 2 3 3 3 3 3 4 4 4 4 7 5 5 5 5 5 5 4 4 4 4 4 4 4 4 5 5 4 4 4 4 4 4 4 4 5 5 5 5
2 2 2 2 2 2 2 2 3 3 4 4 3 4 7 4 4 4 4 4 4 4 3 4 4 4 4 5 5 5 5 5 5 5 5 4 4 4 4 5 5 5 5
1 2 2 1 1 2 2 2 3 3 3 3 3 3 4 4 4 4 4 4 3 3 3 4 4 4 4 4 5 5 6 6 5 5 5 5 5 5 5 5 6 6 6
1 2 2 2 2 2 3 3 3 3 3 3 4 4 4 4 4 5 4 3 3 4 4 4 5 6 7 6 5 5 6 6 5 5 7 6 6 5 5 5 6 7 6
1 2 2 2 2 3 3 3 3 4 4 4 4 4 4 4 4 4 4 4 5 5 6 6 5 6 8 9 8 7 8 9 8 6 6 6 7 7 7 7 6 6 6
2 2 2 2 3 3 3 4 4 4 4 4 4 4 5 5 5 5 4 4 4 5 5 5 7 8 9 8 9 10 11 11 11 10 8 7 8 7 7 6 8 7 7
Wind_Direction
202 202 201 203 202 202 204 206 202 198 194 191 189 182 182 182 181 179 178 171 170 164 156 159 153 145 146 140 140 145 158 222 243 216 1 337 308 325 333 334 329 327 324
190 190 193 193 191 191 193 192 187 186 183 180 176 171 171 171 172 171 166 164 161 154 149 141 133 126 118 115 118 115 108 89 218 243 291 313 309 331 331 324 324 320 315
174 175 178 182 184 185 181 174 169 166 162 161 163 162 160 157 153 151 149 144 141 141 140 138 135 132 124 121 116 111 102 89 80 218 281 301 304 328 323 315 316 314 315
170 172 172 174 173 168 159 154 153 152 151 150 146 144 142 141 139 135 133 128 124 119 118 123 130 135 135 132 123 121 117 114 105 222 274 288 296 320 316 321 321 323 318
170 169 168 159 152 143 140 137 132 131 134 133 130 127 127 130 136 138 133 132 128 119 111 107 108 107 110 118 128 135 138 139 150 239 275 289 302 319 324 325 314 318 312
172 167 156 153 147 143 136 131 128 125 123 122 128 130 128 126 139 139 137 133 131 131 126 118 115 117 113 111 110 114 125 148 179 234 269 284 300 310 314 314 315 320 315
170 163 159 155 149 145 138 136 135 132 127 125 126 128 127 133 140 139 133 133 134 134 133 133 130 124 129 126 123 120 108 105 220 254 265 281 297 306 309 306 306 303 295
169 167 162 158 151 145 144 142 136 132 134 132 131 131 128 136 142 137 130 124 124 128 133 139 140 142 144 142 140 142 143 118 343 290 280 293 301 307 299 295 298 295 287
175 173 168 162 156 154 153 148 141 138 134 130 131 134 135 140 144 141 135 127 126 128 127 133 141 146 156 158 159 167 176 179 4 337 326 322 322 326 324 306 304 305 303
181 170 162 160 159 158 153 143 134 131 129 127 125 130 137 140 150 149 143 137 137 136 134 138 149 153 163 173 177 184 205 224 249 331 329 328 328 329 332 317 306 300 302
150 145 149 153 152 146 137 134 135 134 132 132 131 129 131 142 157 157 156 148 151 150 155 160 165 168 172 176 175 198 230 210 190 285 298 302 310 318 326 326 315 298 291
140 144 146 146 144 140 138 139 143 146 145 145 143 141 137 139 155 163 164 158 153 155 162 161 165 172 173 165 150 128 106 104 139 253 274 289 305 315 320 315 308 298 286
139 141 139 137 136 143 151 153 154 160 161 161 161 160 158 157 161 164 165 162 157 145 147 152 157 165 157 142 126 116 110 126 179 243 268 289 309 310 306 303 299 298 288
141 141 141 144 144 146 154 162 167 172 172 169 170 168 164 168 173 170 166 162 158 147 138 141 150 153 140 123 122 116 108 126 245 255 276 294 300 298 299 309 308 315 303
138 140 144 148 149 151 154 166 176 181 185 179 179 174 173 183 190 183 173 174 172 160 142 140 155 164 170 168 163 160 173 184 211 245 270 284 290 294 300 310 306 305 297
142 148 150 150 148 151 149 140 146 159 166 175 172 172 178 177 171 181 184 182 173 161 154 176 185 191 198 198 196 196 201 212 223 239 253 268 280 289 296 300 299 297 297
147 150 150 151 155 159 162 161 154 144 153 159 171 180 176 170 175 180 181 180 178 175 189 194 199 202 206 205 206 209 212 209 218 235 247 259 272 280 286 291 295 295 295
136 142 150 156 162 166 170 171 170 170 172 174 170 177 174 177 181 181 179 177 189 195 210 208 209 209 209 208 207 209 211 208 215 230 241 250 260 271 276 282 288 294 297
133 140 146 149 156 162 165 169 173 179 181 177 174 181 178 186 187 186 183 200 205 208 212 214 212 209 208 207 207 208 213 219 223 230 237 241 246 258 267 276 283 288 287
120 126 140 153 157 163 170 176 181 186 188 192 196 190 174 182 196 200 202 209 213 215 213 212 208 207 205 206 207 207 213 218 220 226 233 236 240 249 260 267 273 281 283
126 133 139 156 172 179 183 190 193 196 202 207 209 205 202 207 213 213 212 215 219 219 215 213 208 208 208 206 207 212 219 224 224 227 231 234 236 244 254 262 269 270 278
128 142 160 177 183 190 197 203 207 211 213 217 217 216 219 223 223 221 221 221 221 221 218 212 212 211 209 208 209 213 219 226 225 224 228 229 233 241 248 255 262 270 273
140 153 163 176 191 191 203 210 214 218 221 222 217 216 218 222 227 230 230 227 220 217 213 212 217 216 213 213 217 217 223 227 225 221 225 231 234 238 242 250 256 265 270
162 179 186 189 197 208 217 219 222 224 225 226 226 226 227 229 231 234 233 229 225 222 216 215 221 224 222 221 222 223 228 232 228 225 225 231 237 240 242 247 253 258 264
184 199 208 214 218 223 227 228 229 229 228 229 231 231 231 233 235 237 233 228 228 229 228 227 226 227 226 226 228 229 233 235 232 224 220 226 235 237 239 244 248 255 256
218 221 225 225 228 230 233 236 236 237 238 238 236 236 235 234 236 237 233 230 230 233 234 232 231 231 233 233 235 235 236 236 232 225 220 222 228 231 230 237 243 248 254